SKY MUSTER (NBN1A)

Last updated on May 20, 2019, 3:09 a.m. UTC

1 40940U 15054A   19138.97403411 -.00000289  00000-0  00000+0 0  9992
2 40940   0.0114 283.0407 0001984 133.7289 310.4769  1.00272276 13353
UTC
Height (km)
Latitude
Longitude
Inclination
Orbital Period
UTC large
Height (km)
Speed (km/s)
/
Latitude / Longitude
Inclination (degrees)
Orbital Period (minutes)
Azimuth
Elevation
Range (km)
Doppler Factor
iOS Compass Heading
iOS Angle

Next 30 passes for location: Hong Kong

Rise time Rise Azimuth (degrees) Set time Set Azimuth (degrees) Duration Max altitude (degrees)

No matching passes for this satellites